Time,TemperatureF,DewpointF,PressureIn,WindDirection,WindDirectionDegrees,WindSpeedMPH,WindSpeedGustMPH,Humidity,HourlyPrecipIn,Conditions,Clouds,dailyrainin,SoftwareType,DateUTC
2013-09-28 00:01:00,53.1,45.1,29.18,East,90,0.0,0.0,74,0.00,,,0.00,WUHU216WMR100,2013-09-28 04:01:00,
2013-09-28 00:06:00,52.9,44.9,29.18,East,90,0.0,0.0,74,0.00,,,0.00,WUHU216WMR100,2013-09-28 04:06:00,
2013-09-28 00:11:00,52.9,44.9,29.18,East,90,0.0,0.0,74,0.00,,,0.00,WUHU216WMR100,2013-09-28 04:11:00,
2013-09-28 00:16:00,52.5,44.5,29.18,East,90,0.0,0.0,74,0.00,,,0.00,WUHU216WMR100,2013-09-28 04:16:00,
2013-09-28 00:21:00,52.3,44.3,29.18,East,90,0.0,0.0,74,0.00,,,0.00,WUHU216WMR100,2013-09-28 04:21:00,
2013-09-28 00:26:00,52.3,44.3,29.18,East,90,0.0,0.0,74,0.00,,,0.00,WUHU216WMR100,2013-09-28 04:26:00,
2013-09-28 00:31:00,52.2,44.2,29.18,East,90,0.0,0.0,74,0.00,,,0.00,WUHU216WMR100,2013-09-28 04:31:00,
2013-09-28 00:36:00,52.3,44.7,29.18,ENE,67,0.0,0.0,75,0.00,,,0.00,WUHU216WMR100,2013-09-28 04:36:00,
2013-09-28 00:41:00,52.2,44.6,29.18,ENE,67,0.0,0.0,75,0.00,,,0.00,WUHU216WMR100,2013-09-28 04:41:00,
2013-09-28 00:46:00,52.2,44.6,29.18,ENE,67,0.0,0.0,75,0.00,,,0.00,WUHU216WMR100,2013-09-28 04:46:00,
2013-09-28 00:51:00,52.0,44.7,29.18,ENE,67,0.0,0.0,76,0.00,,,0.00,WUHU216WMR100,2013-09-28 04:51:00,
2013-09-28 00:56:00,52.0,45.1,29.18,ENE,67,0.0,0.0,77,0.00,,,0.00,WUHU216WMR100,2013-09-28 04:56:00,
2013-09-28 01:01:00,52.0,45.1,29.18,ENE,67,0.0,0.0,77,0.00,,,0.00,WUHU216WMR100,2013-09-28 05:01:00,
2013-09-28 01:06:00,51.6,45.0,29.18,ENE,67,0.0,0.0,78,0.00,,,0.00,WUHU216WMR100,2013-09-28 05:06:00,
2013-09-28 01:11:00,51.6,45.0,29.18,ENE,67,0.0,0.0,78,0.00,,,0.00,WUHU216WMR100,2013-09-28 05:11:00,
2013-09-28 01:16:00,51.6,45.0,29.18,ENE,67,0.0,0.0,78,0.00,,,0.00,WUHU216WMR100,2013-09-28 05:16:00,
2013-09-28 01:21:00,51.4,45.2,29.18,ENE,67,0.0,0.0,79,0.00,,,0.00,WUHU216WMR100,2013-09-28 05:21:00,
2013-09-28 01:26:00,51.4,45.2,29.18,ENE,67,0.0,0.0,79,0.00,,,0.00,WUHU216WMR100,2013-09-28 05:26:00,
2013-09-28 01:31:00,51.3,44.7,29.18,ENE,67,0.0,0.0,78,0.00,,,0.00,WUHU216WMR100,2013-09-28 05:31:00,
2013-09-28 01:36:00,51.3,45.4,29.18,ENE,67,0.0,0.0,80,0.00,,,0.00,WUHU216WMR100,2013-09-28 05:36:00,
2013-09-28 01:41:00,51.1,44.9,29.18,ENE,67,0.0,0.0,79,0.00,,,0.00,WUHU216WMR100,2013-09-28 05:41:00,
2013-09-28 01:46:00,51.1,44.9,29.18,ENE,67,0.0,0.0,79,0.00,,,0.00,WUHU216WMR100,2013-09-28 05:46:00,
2013-09-28 01:51:00,50.9,44.7,29.18,ENE,67,0.0,0.0,79,0.00,,,0.00,WUHU216WMR100,2013-09-28 05:51:00,
2013-09-28 01:56:00,50.7,44.5,29.18,ENE,67,0.0,0.0,79,0.00,,,0.00,WUHU216WMR100,2013-09-28 05:56:00,
2013-09-28 02:01:00,50.9,45.0,29.18,ENE,67,0.0,0.0,80,0.00,,,0.00,WUHU216WMR100,2013-09-28 06:01:00,
2013-09-28 02:06:00,50.9,45.0,29.18,ENE,67,0.0,0.0,80,0.00,,,0.00,WUHU216WMR100,2013-09-28 06:06:00,
2013-09-28 02:11:00,50.7,44.8,29.18,ENE,67,0.0,0.0,80,0.00,,,0.00,WUHU216WMR100,2013-09-28 06:11:00,
2013-09-28 02:16:00,50.4,44.5,29.18,ENE,67,0.0,0.0,80,0.00,,,0.00,WUHU216WMR100,2013-09-28 06:16:00,
2013-09-28 02:21:00,50.2,44.6,29.18,ENE,67,0.0,0.0,81,0.00,,,0.00,WUHU216WMR100,2013-09-28 06:21:00,
2013-09-28 02:26:00,50.2,44.3,29.18,ENE,67,0.0,0.0,80,0.00,,,0.00,WUHU216WMR100,2013-09-28 06:26:00,
2013-09-28 02:31:00,50.2,44.6,29.18,ENE,67,0.0,0.0,81,0.00,,,0.00,WUHU216WMR100,2013-09-28 06:31:00,
2013-09-28 02:36:00,50.0,44.4,29.18,ENE,67,0.0,0.0,81,0.00,,,0.00,WUHU216WMR100,2013-09-28 06:36:00,
2013-09-28 02:41:00,50.0,44.7,29.18,ENE,67,0.0,0.0,82,0.00,,,0.00,WUHU216WMR100,2013-09-28 06:41:00,
2013-09-28 02:46:00,50.2,44.9,29.18,ENE,67,0.0,0.0,82,0.00,,,0.00,WUHU216WMR100,2013-09-28 06:46:00,
2013-09-28 02:51:00,49.8,44.5,29.18,ENE,67,0.0,0.0,82,0.00,,,0.00,WUHU216WMR100,2013-09-28 06:51:00,
2013-09-28 02:56:00,49.8,44.5,29.18,ENE,67,0.5,1.1,82,0.00,,,0.00,WUHU216WMR100,2013-09-28 06:56:00,
2013-09-28 03:01:00,49.8,44.5,29.18,ENE,67,0.0,1.1,82,0.00,,,0.00,WUHU216WMR100,2013-09-28 07:01:00,
2013-09-28 03:06:00,49.8,44.5,29.18,ENE,67,0.0,0.0,82,0.00,,,0.00,WUHU216WMR100,2013-09-28 07:06:00,
2013-09-28 03:11:00,49.6,44.3,29.18,ENE,67,0.0,0.0,82,0.00,,,0.00,WUHU216WMR100,2013-09-28 07:11:00,
2013-09-28 03:16:00,49.6,44.7,29.18,ENE,67,0.0,0.0,83,0.00,,,0.00,WUHU216WMR100,2013-09-28 07:16:00,
2013-09-28 03:21:00,49.6,44.7,29.18,ENE,67,0.0,0.0,83,0.00,,,0.00,WUHU216WMR100,2013-09-28 07:21:00,
2013-09-28 03:26:00,49.5,44.6,29.18,ENE,67,0.0,0.0,83,0.00,,,0.00,WUHU216WMR100,2013-09-28 07:26:00,
2013-09-28 03:31:00,49.3,44.4,29.18,ENE,67,0.0,0.0,83,0.00,,,0.00,WUHU216WMR100,2013-09-28 07:31:00,
2013-09-28 03:36:00,49.1,44.2,29.18,ENE,67,0.0,0.0,83,0.00,,,0.00,WUHU216WMR100,2013-09-28 07:36:00,
2013-09-28 03:41:00,49.1,44.2,29.18,ENE,67,0.0,0.0,83,0.00,,,0.00,WUHU216WMR100,2013-09-28 07:41:00,
2013-09-28 03:46:00,49.1,44.5,29.18,ENE,67,0.0,0.0,84,0.00,,,0.00,WUHU216WMR100,2013-09-28 07:46:00,
2013-09-28 03:51:00,49.1,44.5,29.18,ENE,67,0.0,0.0,84,0.00,,,0.00,WUHU216WMR100,2013-09-28 07:51:00,
2013-09-28 03:56:00,48.9,44.3,29.18,ENE,67,0.0,0.0,84,0.00,,,0.00,WUHU216WMR100,2013-09-28 07:56:00,
2013-09-28 04:01:00,48.7,44.1,29.18,ENE,67,0.0,0.0,84,0.00,,,0.00,WUHU216WMR100,2013-09-28 08:01:00,
2013-09-28 04:06:00,48.7,44.1,29.18,ENE,67,0.0,0.0,84,0.00,,,0.00,WUHU216WMR100,2013-09-28 08:06:00,
2013-09-28 04:13:00,48.7,44.1,29.18,ENE,67,0.0,0.0,84,0.00,,,0.00,WUHU216WMR100,2013-09-28 08:13:00,
2013-09-28 04:18:00,48.6,44.0,29.18,ENE,67,0.0,0.0,84,0.00,,,0.00,WUHU216WMR100,2013-09-28 08:18:00,
2013-09-28 04:23:00,48.4,43.8,29.18,ENE,67,0.0,0.0,84,0.00,,,0.00,WUHU216WMR100,2013-09-28 08:23:00,
2013-09-28 04:28:00,48.4,43.8,29.18,ENE,67,0.0,0.0,84,0.00,,,0.00,WUHU216WMR100,2013-09-28 08:28:00,
2013-09-28 04:33:00,48.6,44.3,29.18,ENE,67,0.0,0.0,85,0.00,,,0.00,WUHU216WMR100,2013-09-28 08:33:00,
2013-09-28 04:38:00,48.4,44.1,29.18,ENE,67,0.0,0.0,85,0.00,,,0.00,WUHU216WMR100,2013-09-28 08:38:00,
2013-09-28 04:43:00,48.2,43.9,29.18,ENE,67,0.0,0.0,85,0.00,,,0.00,WUHU216WMR100,2013-09-28 08:43:00,
2013-09-28 04:48:00,48.2,43.9,29.18,ENE,67,0.0,0.0,85,0.00,,,0.00,WUHU216WMR100,2013-09-28 08:48:00,
2013-09-28 04:54:00,48.2,43.9,29.18,ENE,67,0.0,0.0,85,0.00,,,0.00,WUHU216WMR100,2013-09-28 08:54:00,
2013-09-28 04:59:00,48.0,43.7,29.18,ENE,67,0.0,0.0,85,0.00,,,0.00,WUHU216WMR100,2013-09-28 08:59:00,
2013-09-28 05:04:00,48.0,43.7,29.18,ENE,67,0.0,0.0,85,0.00,,,0.00,WUHU216WMR100,2013-09-28 09:04:00,
2013-09-28 05:09:00,48.0,43.7,29.18,ENE,67,0.0,0.0,85,0.00,,,0.00,WUHU216WMR100,2013-09-28 09:09:00,
2013-09-28 05:14:00,47.7,43.4,29.18,ENE,67,0.0,0.0,85,0.00,,,0.00,WUHU216WMR100,2013-09-28 09:14:00,
2013-09-28 05:19:00,47.8,43.5,29.18,ENE,67,0.0,0.0,85,0.00,,,0.00,WUHU216WMR100,2013-09-28 09:19:00,
2013-09-28 05:24:00,47.7,43.4,29.18,ENE,67,0.0,0.0,85,0.00,,,0.00,WUHU216WMR100,2013-09-28 09:24:00,
2013-09-28 05:29:00,47.7,43.7,29.18,ENE,67,0.0,0.0,86,0.00,,,0.00,WUHU216WMR100,2013-09-28 09:29:00,
2013-09-28 05:34:00,47.5,43.5,29.18,ENE,67,0.0,0.0,86,0.00,,,0.00,WUHU216WMR100,2013-09-28 09:34:00,
2013-09-28 05:39:00,47.5,43.5,29.18,ENE,67,0.0,0.0,86,0.00,,,0.00,WUHU216WMR100,2013-09-28 09:39:00,
2013-09-28 05:44:00,47.3,43.0,29.18,ENE,67,0.0,0.0,85,0.00,,,0.00,WUHU216WMR100,2013-09-28 09:44:00,
2013-09-28 05:49:00,47.3,43.0,29.18,ENE,67,0.0,0.0,85,0.00,,,0.00,WUHU216WMR100,2013-09-28 09:49:00,
2013-09-28 05:54:00,47.5,43.5,29.18,ENE,67,0.0,0.0,86,0.00,,,0.00,WUHU216WMR100,2013-09-28 09:54:00,
2013-09-28 05:59:00,47.3,43.3,29.18,ENE,67,0.0,0.0,86,0.00,,,0.00,WUHU216WMR100,2013-09-28 09:59:00,
2013-09-28 06:04:00,47.3,43.3,29.18,ENE,67,0.0,0.0,86,0.00,,,0.00,WUHU216WMR100,2013-09-28 10:04:00,
2013-09-28 06:09:00,47.3,43.3,29.18,ENE,67,0.0,0.0,86,0.00,,,0.00,WUHU216WMR100,2013-09-28 10:09:00,
2013-09-28 06:14:00,47.1,42.8,29.18,ENE,67,0.0,0.0,85,0.00,,,0.00,WUHU216WMR100,2013-09-28 10:14:00,
2013-09-28 06:19:00,47.1,42.8,29.18,ENE,67,0.0,0.0,85,0.00,,,0.00,WUHU216WMR100,2013-09-28 10:19:00,
2013-09-28 06:24:00,46.9,42.9,29.18,ENE,67,0.0,0.0,86,0.00,,,0.00,WUHU216WMR100,2013-09-28 10:24:00,
2013-09-28 06:29:00,47.1,43.1,29.18,ENE,67,0.0,0.0,86,0.00,,,0.00,WUHU216WMR100,2013-09-28 10:29:00,
2013-09-28 06:34:00,46.9,42.9,29.18,ENE,67,0.0,0.0,86,0.00,,,0.00,WUHU216WMR100,2013-09-28 10:34:00,
2013-09-28 06:39:00,46.8,42.8,29.18,ENE,67,0.0,0.0,86,0.00,,,0.00,WUHU216WMR100,2013-09-28 10:39:00,
2013-09-28 06:44:00,46.9,42.9,29.18,ENE,67,0.0,0.0,86,0.00,,,0.00,WUHU216WMR100,2013-09-28 10:44:00,
2013-09-28 06:49:00,46.8,42.8,29.18,ENE,67,0.0,0.0,86,0.00,,,0.00,WUHU216WMR100,2013-09-28 10:49:00,
2013-09-28 06:54:00,46.8,42.8,29.18,ENE,67,0.0,0.0,86,0.00,,,0.00,WUHU216WMR100,2013-09-28 10:54:00,
2013-09-28 06:59:00,46.6,42.6,29.18,ENE,67,0.0,0.0,86,0.00,,,0.00,WUHU216WMR100,2013-09-28 10:59:00,
2013-09-28 07:04:00,46.6,42.6,29.18,ENE,67,0.0,0.0,86,0.00,,,0.00,WUHU216WMR100,2013-09-28 11:04:00,
2013-09-28 07:09:00,46.6,42.9,29.18,ENE,67,0.0,0.0,87,0.00,,,0.00,WUHU216WMR100,2013-09-28 11:09:00,
2013-09-28 07:14:00,46.6,42.9,29.18,ENE,67,0.0,0.0,87,0.00,,,0.00,WUHU216WMR100,2013-09-28 11:14:00,
2013-09-28 07:19:00,46.6,42.9,29.21,ENE,67,0.0,0.0,87,0.00,,,0.00,WUHU216WMR100,2013-09-28 11:19:00,
2013-09-28 07:24:00,46.4,42.7,29.21,ENE,67,0.0,0.0,87,0.00,,,0.00,WUHU216WMR100,2013-09-28 11:24:00,
2013-09-28 07:29:00,46.4,42.7,29.21,ENE,67,0.0,0.0,87,0.00,,,0.00,WUHU216WMR100,2013-09-28 11:29:00,
2013-09-28 07:34:00,46.4,42.7,29.21,ENE,67,0.0,0.0,87,0.00,,,0.00,WUHU216WMR100,2013-09-28 11:34:00,
2013-09-28 07:39:00,46.4,42.7,29.21,ENE,67,0.0,0.0,87,0.00,,,0.00,WUHU216WMR100,2013-09-28 11:39:00,
2013-09-28 07:44:00,46.4,42.7,29.21,ENE,67,0.0,0.0,87,0.00,,,0.00,WUHU216WMR100,2013-09-28 11:44:00,
2013-09-28 07:49:00,46.6,42.9,29.21,ENE,67,0.0,0.0,87,0.00,,,0.00,WUHU216WMR100,2013-09-28 11:49:00,
2013-09-28 07:54:00,46.8,43.1,29.21,ENE,67,0.0,0.0,87,0.00,,,0.00,WUHU216WMR100,2013-09-28 11:54:00,
2013-09-28 07:59:00,46.9,43.5,29.21,ENE,67,0.0,0.0,88,0.00,,,0.00,WUHU216WMR100,2013-09-28 11:59:00,
2013-09-28 08:04:00,47.1,43.7,29.21,ENE,67,0.0,0.0,88,0.00,,,0.00,WUHU216WMR100,2013-09-28 12:04:00,
2013-09-28 08:10:00,47.5,44.1,29.21,ENE,67,0.0,0.0,88,0.00,,,0.00,WUHU216WMR100,2013-09-28 12:10:00,
2013-09-28 08:15:00,47.7,44.6,29.21,ENE,67,0.0,0.0,89,0.00,,,0.00,WUHU216WMR100,2013-09-28 12:15:00,
2013-09-28 08:20:00,48.0,44.9,29.21,ENE,67,0.0,0.0,89,0.00,,,0.00,WUHU216WMR100,2013-09-28 12:20:00,
2013-09-28 08:25:00,48.4,45.3,29.21,ENE,67,0.0,0.0,89,0.00,,,0.00,WUHU216WMR100,2013-09-28 12:25:00,
2013-09-28 08:30:00,48.9,45.8,29.21,ENE,67,0.0,0.0,89,0.00,,,0.00,WUHU216WMR100,2013-09-28 12:30:00,
2013-09-28 08:35:00,49.6,46.7,29.21,ENE,67,0.0,0.0,90,0.00,,,0.00,WUHU216WMR100,2013-09-28 12:35:00,
2013-09-28 08:40:00,52.7,50.1,29.21,ENE,67,0.0,0.0,91,0.00,,,0.00,WUHU216WMR100,2013-09-28 12:40:00,
2013-09-28 08:45:00,54.9,52.0,29.21,ENE,67,0.0,0.0,90,0.00,,,0.00,WUHU216WMR100,2013-09-28 12:45:00,
2013-09-28 08:50:00,56.5,53.0,29.21,ENE,67,0.0,0.0,88,0.00,,,0.00,WUHU216WMR100,2013-09-28 12:50:00,
2013-09-28 08:55:00,57.6,53.4,29.21,ENE,67,0.0,0.0,86,0.00,,,0.00,WUHU216WMR100,2013-09-28 12:55:00,
2013-09-28 09:00:00,58.5,54.3,29.21,ENE,67,0.0,0.0,86,0.00,,,0.00,WUHU216WMR100,2013-09-28 13:00:00,
2013-09-28 09:05:00,59.2,54.1,29.21,ENE,67,0.0,0.0,83,0.00,,,0.00,WUHU216WMR100,2013-09-28 13:05:00,
2013-09-28 09:10:00,59.9,54.8,29.21,ENE,67,0.0,0.0,83,0.00,,,0.00,WUHU216WMR100,2013-09-28 13:10:00,
2013-09-28 09:15:00,60.6,55.4,29.21,ENE,67,0.0,0.0,83,0.00,,,0.00,WUHU216WMR100,2013-09-28 13:15:00,
2013-09-28 09:21:00,61.3,56.1,29.21,ENE,67,0.0,0.0,83,0.00,,,0.00,WUHU216WMR100,2013-09-28 13:21:00,
2013-09-28 09:26:00,61.7,54.5,29.21,ENE,67,0.0,1.3,77,0.00,,,0.00,WUHU216WMR100,2013-09-28 13:26:00,
2013-09-28 09:31:00,62.1,54.5,29.21,ENE,67,0.0,1.3,76,0.00,,,0.00,WUHU216WMR100,2013-09-28 13:31:00,
2013-09-28 09:36:00,62.4,55.2,29.21,ENE,67,1.1,1.3,77,0.00,,,0.00,WUHU216WMR100,2013-09-28 13:36:00,
2013-09-28 09:41:00,62.8,52.6,29.21,ENE,67,1.2,3.1,69,0.00,,,0.00,WUHU216WMR100,2013-09-28 13:41:00,
2013-09-28 09:46:00,63.3,53.1,29.21,ESE,112,0.2,3.1,69,0.00,,,0.00,WUHU216WMR100,2013-09-28 13:46:00,
2013-09-28 09:51:00,64.2,53.2,29.21,ESE,112,0.2,2.2,67,0.00,,,0.00,WUHU216WMR100,2013-09-28 13:51:00,
2013-09-28 09:56:00,64.2,50.6,29.21,NNW,337,1.6,2.7,61,0.00,,,0.00,WUHU216WMR100,2013-09-28 13:56:00,
2013-09-28 10:01:00,64.6,50.1,29.21,NNW,337,1.6,2.7,59,0.00,,,0.00,WUHU216WMR100,2013-09-28 14:01:00,
2013-09-28 10:05:00,65.3,47.3,29.21,NNW,337,1.6,1.6,52,0.00,,,0.00,WUHU216WMR100,2013-09-28 14:05:00,
2013-09-28 10:10:00,65.7,46.6,29.21,SSE,157,1.4,2.0,50,0.00,,,0.00,WUHU216WMR100,2013-09-28 14:10:00,
2013-09-28 10:17:00,66.0,46.9,29.21,East,92,1.4,2.5,50,0.00,,,0.00,WUHU216WMR100,2013-09-28 14:17:00,
2013-09-28 10:22:00,66.4,46.1,29.21,ENE,67,2.0,2.5,48,0.00,,,0.00,WUHU216WMR100,2013-09-28 14:22:00,
2013-09-28 10:27:00,67.3,46.9,29.21,SE,135,0.2,2.5,48,0.00,,,0.00,WUHU216WMR100,2013-09-28 14:27:00,
2013-09-28 10:33:00,67.5,46.6,29.21,WSW,247,1.1,3.4,47,0.00,,,0.00,WUHU216WMR100,2013-09-28 14:33:00,
2013-09-28 10:38:00,68.4,46.2,29.21,WSW,247,0.9,3.4,45,0.00,,,0.00,WUHU216WMR100,2013-09-28 14:38:00,
2013-09-28 10:43:00,68.5,45.0,29.21,WSW,247,0.9,2.0,43,0.00,,,0.00,WUHU216WMR100,2013-09-28 14:43:00,
2013-09-28 10:48:00,68.7,45.8,29.21,ESE,112,0.8,3.1,44,0.00,,,0.00,WUHU216WMR100,2013-09-28 14:48:00,
2013-09-28 10:53:00,69.1,46.2,29.21,WSW,247,1.1,3.8,44,0.00,,,0.00,WUHU216WMR100,2013-09-28 14:53:00,
2013-09-28 10:58:00,69.8,45.6,29.21,ENE,67,2.7,3.8,42,0.00,,,0.00,WUHU216WMR100,2013-09-28 14:58:00,
2013-09-28 11:03:00,70.5,46.2,29.21,SE,135,1.6,3.8,42,0.00,,,0.00,WUHU216WMR100,2013-09-28 15:03:00,
2013-09-28 11:08:00,71.1,45.4,29.21,WSW,247,2.2,3.6,40,0.00,,,0.00,WUHU216WMR100,2013-09-28 15:08:00,
2013-09-28 11:13:00,71.2,44.8,29.21,NNE,25,2.2,3.6,39,0.00,,,0.00,WUHU216WMR100,2013-09-28 15:13:00,
2013-09-28 11:18:00,71.2,44.1,29.21,SSW,211,2.1,3.8,38,0.00,,,0.00,WUHU216WMR100,2013-09-28 15:18:00,
2013-09-28 11:23:00,72.3,43.7,29.21,West,270,2.2,3.8,36,0.00,,,0.00,WUHU216WMR100,2013-09-28 15:23:00,
2013-09-28 11:28:00,73.0,45.0,29.21,SSW,202,1.6,2.7,37,0.00,,,0.00,WUHU216WMR100,2013-09-28 15:28:00,
2013-09-28 11:33:00,73.4,44.7,29.21,SW,225,1.8,2.9,36,0.00,,,0.00,WUHU216WMR100,2013-09-28 15:33:00,
2013-09-28 11:38:00,74.3,44.7,29.21,ENE,74,2.4,4.7,35,0.00,,,0.00,WUHU216WMR100,2013-09-28 15:38:00,
2013-09-28 11:43:00,75.4,44.1,29.21,SSW,202,2.5,4.7,33,0.00,,,0.00,WUHU216WMR100,2013-09-28 15:43:00,
2013-09-28 11:48:00,75.7,45.2,29.21,West,270,1.6,3.4,34,0.00,,,0.00,WUHU216WMR100,2013-09-28 15:48:00,
2013-09-28 11:53:00,75.9,45.4,29.21,South,180,1.3,3.4,34,0.00,,,0.00,WUHU216WMR100,2013-09-28 15:53:00,
2013-09-28 11:58:00,76.5,44.3,29.21,SSE,157,2.2,4.0,32,0.00,,,0.00,WUHU216WMR100,2013-09-28 15:58:00,
2013-09-28 12:03:00,77.0,44.7,29.21,SSE,157,2.2,4.0,32,0.00,,,0.00,WUHU216WMR100,2013-09-28 16:03:00,
2013-09-28 12:08:00,77.2,44.1,29.21,SSE,157,2.9,4.0,31,0.00,,,0.00,WUHU216WMR100,2013-09-28 16:08:00,
2013-09-28 12:13:00,77.5,44.3,29.21,SSE,157,2.0,4.0,31,0.00,,,0.00,WUHU216WMR100,2013-09-28 16:13:00,
2013-09-28 12:18:00,77.4,44.2,29.21,SSE,157,2.0,2.9,31,0.00,,,0.00,WUHU216WMR100,2013-09-28 16:18:00,
2013-09-28 12:23:00,77.7,44.5,29.21,SSE,157,2.0,2.9,31,0.00,,,0.00,WUHU216WMR100,2013-09-28 16:23:00,
2013-09-28 12:28:00,78.3,45.0,29.21,SE,146,1.6,2.9,31,0.00,,,0.00,WUHU216WMR100,2013-09-28 16:28:00,
2013-09-28 12:33:00,79.0,44.8,29.21,ENE,67,1.6,2.9,30,0.00,,,0.00,WUHU216WMR100,2013-09-28 16:33:00,
2013-09-28 12:38:00,78.8,44.6,29.21,ESE,110,2.8,2.9,30,0.00,,,0.00,WUHU216WMR100,2013-09-28 16:38:00,
2013-09-28 12:44:00,79.7,45.4,29.21,East,90,2.2,2.9,30,0.00,,,0.00,WUHU216WMR100,2013-09-28 16:44:00,
2013-09-28 12:49:00,81.0,46.5,29.21,East,90,0.9,2.2,30,0.00,,,0.00,WUHU216WMR100,2013-09-28 16:49:00,
2013-09-28 12:55:00,80.8,45.4,29.21,WSW,247,2.0,2.9,29,0.00,,,0.00,WUHU216WMR100,2013-09-28 16:55:00,
2013-09-28 13:00:00,81.9,45.5,29.21,SE,132,1.9,2.9,28,0.00,,,0.00,WUHU216WMR100,2013-09-28 17:00:00,
2013-09-28 13:05:00,82.0,44.6,29.21,WSW,247,0.0,2.7,27,0.00,,,0.00,WUHU216WMR100,2013-09-28 17:05:00,
2013-09-28 13:10:00,81.7,42.4,29.21,East,90,2.7,4.0,25,0.00,,,0.00,WUHU216WMR100,2013-09-28 17:10:00,
2013-09-28 13:15:00,81.7,42.4,29.21,East,90,2.2,4.0,25,0.00,,,0.00,WUHU216WMR100,2013-09-28 17:15:00,
2013-09-28 13:20:00,82.2,40.6,29.18,East,90,2.9,4.3,23,0.00,,,0.00,WUHU216WMR100,2013-09-28 17:20:00,
2013-09-28 13:25:00,83.3,42.7,29.18,SE,135,0.4,4.3,24,0.00,,,0.00,WUHU216WMR100,2013-09-28 17:25:00,
2013-09-28 13:30:00,83.7,39.6,29.18,ESE,112,2.0,4.3,21,0.00,,,0.00,WUHU216WMR100,2013-09-28 17:30:00,
2013-09-28 13:35:00,84.6,40.3,29.18,West,270,2.5,2.7,21,0.00,,,0.00,WUHU216WMR100,2013-09-28 17:35:00,
2013-09-28 13:40:00,83.3,39.3,29.18,SSW,202,2.9,2.9,21,0.00,,,0.00,WUHU216WMR100,2013-09-28 17:40:00,
2013-09-28 13:45:00,84.4,38.9,29.18,SSW,202,2.9,2.9,20,0.00,,,0.00,WUHU216WMR100,2013-09-28 17:45:00,
2013-09-28 13:50:00,82.9,37.7,29.21,ENE,67,2.5,5.4,20,0.00,,,0.00,WUHU216WMR100,2013-09-28 17:50:00,
2013-09-28 13:55:00,81.9,38.1,29.21,SSE,164,2.7,5.4,21,0.00,,,0.00,WUHU216WMR100,2013-09-28 17:55:00,
2013-09-28 14:00:00,83.5,39.4,29.21,East,90,1.6,3.4,21,0.00,,,0.00,WUHU216WMR100,2013-09-28 18:00:00,
2013-09-28 14:05:00,84.0,39.8,29.18,SW,225,2.7,3.4,21,0.00,,,0.00,WUHU216WMR100,2013-09-28 18:05:00,
2013-09-28 14:11:00,84.6,39.1,29.18,East,90,2.2,3.4,20,0.00,,,0.00,WUHU216WMR100,2013-09-28 18:11:00,
2013-09-28 14:16:00,81.7,36.7,29.18,WSW,252,3.2,4.9,20,0.00,,,0.00,WUHU216WMR100,2013-09-28 18:16:00,
2013-09-28 14:21:00,79.3,35.9,29.18,WSW,247,2.5,4.9,21,0.00,,,0.00,WUHU216WMR100,2013-09-28 18:21:00,
2013-09-28 14:26:00,81.1,37.4,29.18,ESE,112,2.0,3.8,21,0.00,,,0.00,WUHU216WMR100,2013-09-28 18:26:00,
2013-09-28 14:31:00,82.8,37.6,29.18,SSE,157,2.5,3.8,20,0.00,,,0.00,WUHU216WMR100,2013-09-28 18:31:00,
2013-09-28 14:36:00,84.4,38.9,29.15,West,270,2.5,3.6,20,0.00,,,0.00,WUHU216WMR100,2013-09-28 18:36:00,
2013-09-28 14:41:00,84.2,38.8,29.15,West,261,2.2,3.6,20,0.00,,,0.00,WUHU216WMR100,2013-09-28 18:41:00,
2013-09-28 14:46:00,84.4,37.6,29.15,SSW,200,3.6,6.3,19,0.00,,,0.00,WUHU216WMR100,2013-09-28 18:46:00,
2013-09-28 14:51:00,84.6,37.8,29.15,ESE,111,2.1,6.3,19,0.00,,,0.00,WUHU216WMR100,2013-09-28 18:51:00,
2013-09-28 14:56:00,84.9,38.0,29.15,SW,225,3.8,4.3,19,0.00,,,0.00,WUHU216WMR100,2013-09-28 18:56:00,
2013-09-28 15:01:00,84.4,37.6,29.15,SSE,157,2.0,4.3,19,0.00,,,0.00,WUHU216WMR100,2013-09-28 19:01:00,
2013-09-28 15:06:00,85.1,38.2,29.18,WSW,239,2.6,3.8,19,0.00,,,0.00,WUHU216WMR100,2013-09-28 19:06:00,
2013-09-28 15:11:00,85.3,38.4,29.18,SSW,202,3.1,4.0,19,0.00,,,0.00,WUHU216WMR100,2013-09-28 19:11:00,
2013-09-28 15:16:00,85.3,38.4,29.18,WSW,254,2.5,4.0,19,0.00,,,0.00,WUHU216WMR100,2013-09-28 19:16:00,
2013-09-28 15:21:00,85.6,38.6,29.15,SSW,202,3.8,6.3,19,0.00,,,0.00,WUHU216WMR100,2013-09-28 19:21:00,
2013-09-28 15:26:00,85.3,37.0,29.15,SSE,157,3.1,6.3,18,0.00,,,0.00,WUHU216WMR100,2013-09-28 19:26:00,
2013-09-28 15:31:00,86.0,37.6,29.15,WSW,247,2.5,6.3,18,0.00,,,0.00,WUHU216WMR100,2013-09-28 19:31:00,
2013-09-28 15:36:00,86.4,37.9,29.15,SSE,157,1.1,4.0,18,0.00,,,0.00,WUHU216WMR100,2013-09-28 19:36:00,
2013-09-28 15:41:00,84.2,37.5,29.15,ENE,78,2.6,5.8,19,0.00,,,0.00,WUHU216WMR100,2013-09-28 19:41:00,
2013-09-28 15:46:00,85.5,38.5,29.15,NE,46,1.8,5.8,19,0.00,,,0.00,WUHU216WMR100,2013-09-28 19:46:00,
2013-09-28 15:51:00,85.8,38.8,29.15,SW,232,1.5,2.9,19,0.00,,,0.00,WUHU216WMR100,2013-09-28 19:51:00,
2013-09-28 15:56:00,86.0,37.6,29.15,North,0,2.2,4.5,18,0.00,,,0.00,WUHU216WMR100,2013-09-28 19:56:00,
2013-09-28 16:01:00,86.4,37.9,29.15,SSE,155,2.2,4.5,18,0.00,,,0.00,WUHU216WMR100,2013-09-28 20:01:00,
2013-09-28 16:06:00,82.8,36.3,29.15,East,90,2.5,3.6,19,0.00,,,0.00,WUHU216WMR100,2013-09-28 20:06:00,
2013-09-28 16:11:00,83.7,37.0,29.15,East,90,1.1,2.9,19,0.00,,,0.00,WUHU216WMR100,2013-09-28 20:11:00,
2013-09-28 16:16:00,84.6,37.8,29.15,ESE,112,1.6,4.0,19,0.00,,,0.00,WUHU216WMR100,2013-09-28 20:16:00,
2013-09-28 16:21:00,82.2,37.1,29.15,SSE,157,2.9,4.0,20,0.00,,,0.00,WUHU216WMR100,2013-09-28 20:21:00,
2013-09-28 16:26:00,82.0,36.9,29.15,ESE,112,0.1,3.4,20,0.00,,,0.00,WUHU216WMR100,2013-09-28 20:26:00,
2013-09-28 16:31:00,81.0,36.1,29.15,NE,45,1.0,3.4,20,0.00,,,0.00,WUHU216WMR100,2013-09-28 20:31:00,
2013-09-28 16:36:00,79.0,35.7,29.15,NNW,337,1.3,3.4,21,0.00,,,0.00,WUHU216WMR100,2013-09-28 20:36:00,
2013-09-28 16:41:00,79.2,35.8,29.15,ENE,69,1.4,2.9,21,0.00,,,0.00,WUHU216WMR100,2013-09-28 20:41:00,
2013-09-28 16:46:00,79.9,36.4,29.15,West,270,2.5,3.8,21,0.00,,,0.00,WUHU216WMR100,2013-09-28 20:46:00,
2013-09-28 16:51:00,80.6,37.0,29.12,WNW,292,1.6,3.8,21,0.00,,,0.00,WUHU216WMR100,2013-09-28 20:51:00,
2013-09-28 16:56:00,80.1,36.6,29.12,NE,45,1.2,2.5,21,0.00,,,0.00,WUHU216WMR100,2013-09-28 20:56:00,
2013-09-28 17:01:00,80.1,36.6,29.12,SSE,157,1.6,2.7,21,0.00,,,0.00,WUHU216WMR100,2013-09-28 21:01:00,
2013-09-28 17:06:00,78.1,36.1,29.15,SE,135,1.4,2.9,22,0.00,,,0.00,WUHU216WMR100,2013-09-28 21:06:00,
2013-09-28 17:11:00,78.8,36.7,29.15,SE,135,0.0,2.9,22,0.00,,,0.00,WUHU216WMR100,2013-09-28 21:11:00,
2013-09-28 17:16:00,79.3,37.1,29.15,WSW,247,1.0,1.3,22,0.00,,,0.00,WUHU216WMR100,2013-09-28 21:16:00,
2013-09-28 17:21:00,78.8,36.7,29.15,ESE,112,2.7,3.4,22,0.00,,,0.00,WUHU216WMR100,2013-09-28 21:21:00,
2013-09-28 17:26:00,78.3,37.4,29.15,ENE,67,2.5,3.4,23,0.00,,,0.00,WUHU216WMR100,2013-09-28 21:26:00,
2013-09-28 17:31:00,78.1,37.2,29.15,ENE,67,0.8,3.1,23,0.00,,,0.00,WUHU216WMR100,2013-09-28 21:31:00,
2013-09-28 17:36:00,77.4,36.6,29.15,ENE,67,0.1,2.9,23,0.00,,,0.00,WUHU216WMR100,2013-09-28 21:36:00,
2013-09-28 17:41:00,77.2,37.5,29.15,West,270,1.6,2.5,24,0.00,,,0.00,WUHU216WMR100,2013-09-28 21:41:00,
2013-09-28 17:46:00,77.0,36.3,29.15,SW,225,2.4,2.9,23,0.00,,,0.00,WUHU216WMR100,2013-09-28 21:46:00,
2013-09-28 17:51:00,76.6,35.9,29.12,WSW,247,2.0,3.1,23,0.00,,,0.00,WUHU216WMR100,2013-09-28 21:51:00,
2013-09-28 17:56:00,76.8,37.2,29.12,SSW,202,1.6,3.1,24,0.00,,,0.00,WUHU216WMR100,2013-09-28 21:56:00,
2013-09-28 18:01:00,76.5,35.9,29.12,SSE,157,2.5,3.4,23,0.00,,,0.00,WUHU216WMR100,2013-09-28 22:01:00,
2013-09-28 18:06:00,75.7,36.2,29.12,SW,225,1.3,3.4,24,0.00,,,0.00,WUHU216WMR100,2013-09-28 22:06:00,
2013-09-28 18:11:00,75.2,36.8,29.12,SSE,157,0.9,3.1,25,0.00,,,0.00,WUHU216WMR100,2013-09-28 22:11:00,
2013-09-28 18:16:00,75.2,37.8,29.12,NW,315,0.1,2.2,26,0.00,,,0.00,WUHU216WMR100,2013-09-28 22:16:00,
2013-09-28 18:21:00,74.7,37.4,29.15,WSW,247,0.0,2.2,26,0.00,,,0.00,WUHU216WMR100,2013-09-28 22:21:00,
2013-09-28 18:26:00,74.3,38.0,29.15,WSW,247,0.0,2.2,27,0.00,,,0.00,WUHU216WMR100,2013-09-28 22:26:00,
2013-09-28 18:31:00,73.6,38.3,29.15,WSW,247,0.0,0.0,28,0.00,,,0.00,WUHU216WMR100,2013-09-28 22:31:00,
2013-09-28 18:36:00,73.0,39.6,29.12,WSW,247,0.0,0.0,30,0.00,,,0.00,WUHU216WMR100,2013-09-28 22:36:00,
2013-09-28 18:41:00,72.3,39.8,29.12,WSW,247,0.0,0.0,31,0.00,,,0.00,WUHU216WMR100,2013-09-28 22:41:00,
2013-09-28 18:46:00,71.8,40.2,29.12,WSW,247,0.0,0.0,32,0.00,,,0.00,WUHU216WMR100,2013-09-28 22:46:00,
2013-09-28 18:51:00,71.1,40.3,29.12,WSW,247,0.0,0.0,33,0.00,,,0.00,WUHU216WMR100,2013-09-28 22:51:00,
2013-09-28 18:56:00,70.7,40.8,29.12,NE,45,0.0,0.0,34,0.00,,,0.00,WUHU216WMR100,2013-09-28 22:56:00,
2013-09-28 19:01:00,70.2,40.3,29.12,NE,45,0.6,1.6,34,0.00,,,0.00,WUHU216WMR100,2013-09-28 23:01:00,
2013-09-28 19:06:00,69.8,40.0,29.15,NE,45,0.0,2.0,34,0.00,,,0.00,WUHU216WMR100,2013-09-28 23:06:00,
2013-09-28 19:11:00,69.8,40.0,29.15,NE,45,0.0,2.0,34,0.00,,,0.00,WUHU216WMR100,2013-09-28 23:11:00,
2013-09-28 19:16:00,68.9,40.7,29.15,NE,45,0.0,2.0,36,0.00,,,0.00,WUHU216WMR100,2013-09-28 23:16:00,
2013-09-28 19:21:00,68.9,40.7,29.12,NE,45,0.0,2.0,36,0.00,,,0.00,WUHU216WMR100,2013-09-28 23:21:00,
2013-09-28 19:26:00,68.2,41.5,29.12,ESE,112,0.7,0.9,38,0.00,,,0.00,WUHU216WMR100,2013-09-28 23:26:00,
2013-09-28 19:31:00,67.6,42.3,29.12,ESE,112,0.0,0.9,40,0.00,,,0.00,WUHU216WMR100,2013-09-28 23:31:00,
2013-09-28 19:36:00,67.1,42.5,29.12,ESE,112,0.0,0.9,41,0.00,,,0.00,WUHU216WMR100,2013-09-28 23:36:00,
2013-09-28 19:41:00,66.7,42.8,29.12,ESE,112,0.0,0.0,42,0.00,,,0.00,WUHU216WMR100,2013-09-28 23:41:00,
2013-09-28 19:46:00,66.6,42.7,29.12,ESE,112,0.0,1.6,42,0.00,,,0.00,WUHU216WMR100,2013-09-28 23:46:00,
2013-09-28 19:51:00,66.2,43.0,29.12,ESE,112,0.0,1.6,43,0.00,,,0.00,WUHU216WMR100,2013-09-28 23:51:00,
2013-09-28 19:56:00,65.8,43.2,29.12,ESE,112,0.0,1.6,44,0.00,,,0.00,WUHU216WMR100,2013-09-28 23:56:00,
2013-09-28 20:01:00,65.7,43.7,29.12,ESE,112,0.0,1.6,45,0.00,,,0.00,WUHU216WMR100,2013-09-29 00:01:00,
2013-09-28 20:06:00,65.1,43.8,29.12,ESE,112,0.0,0.0,46,0.00,,,0.00,WUHU216WMR100,2013-09-29 00:06:00,
2013-09-28 20:11:00,64.6,43.9,29.12,ESE,112,0.0,0.0,47,0.00,,,0.00,WUHU216WMR100,2013-09-29 00:11:00,
2013-09-28 20:16:00,64.2,44.1,29.12,ESE,112,0.0,0.0,48,0.00,,,0.00,WUHU216WMR100,2013-09-29 00:16:00,
2013-09-28 20:21:00,63.9,44.4,29.12,ESE,112,0.0,0.0,49,0.00,,,0.00,WUHU216WMR100,2013-09-29 00:21:00,
2013-09-28 20:26:00,63.7,44.2,29.12,ESE,112,0.0,0.0,49,0.00,,,0.00,WUHU216WMR100,2013-09-29 00:26:00,
2013-09-28 20:31:00,63.1,44.2,29.12,ESE,112,0.0,0.0,50,0.00,,,0.00,WUHU216WMR100,2013-09-29 00:31:00,
2013-09-28 20:36:00,62.8,44.4,29.12,ESE,112,0.0,0.0,51,0.00,,,0.00,WUHU216WMR100,2013-09-29 00:36:00,
2013-09-28 20:41:00,62.4,44.6,29.12,ESE,112,0.0,0.0,52,0.00,,,0.00,WUHU216WMR100,2013-09-29 00:41:00,
2013-09-28 20:46:00,61.9,44.6,29.12,ESE,112,0.0,0.0,53,0.00,,,0.00,WUHU216WMR100,2013-09-29 00:46:00,
2013-09-28 20:51:00,61.7,45.5,29.15,ESE,112,0.0,0.0,55,0.00,,,0.00,WUHU216WMR100,2013-09-29 00:51:00,
2013-09-28 20:56:00,61.5,45.8,29.15,ESE,112,0.0,0.0,56,0.00,,,0.00,WUHU216WMR100,2013-09-29 00:56:00,
2013-09-28 21:01:00,61.3,46.0,29.15,ESE,112,0.0,0.0,57,0.00,,,0.00,WUHU216WMR100,2013-09-29 01:01:00,
2013-09-28 21:06:00,61.2,46.4,29.12,ESE,112,0.0,0.0,58,0.00,,,0.00,WUHU216WMR100,2013-09-29 01:06:00,
2013-09-28 21:11:00,61.0,46.7,29.12,ESE,112,0.0,0.0,59,0.00,,,0.00,WUHU216WMR100,2013-09-29 01:11:00,
2013-09-28 21:16:00,60.6,46.8,29.12,ESE,112,0.0,0.0,60,0.00,,,0.00,WUHU216WMR100,2013-09-29 01:16:00,
2013-09-28 21:21:00,60.4,47.5,29.12,East,90,0.0,0.0,62,0.00,,,0.00,WUHU216WMR100,2013-09-29 01:21:00,
2013-09-28 21:26:00,60.1,47.2,29.12,East,90,0.0,0.0,62,0.00,,,0.00,WUHU216WMR100,2013-09-29 01:26:00,
2013-09-28 21:31:00,59.9,47.0,29.12,East,90,0.0,0.0,62,0.00,,,0.00,WUHU216WMR100,2013-09-29 01:31:00,
2013-09-28 21:36:00,59.7,48.1,29.12,East,90,0.0,0.0,65,0.00,,,0.00,WUHU216WMR100,2013-09-29 01:36:00,
2013-09-28 21:41:00,59.4,47.8,29.12,East,90,0.0,0.0,65,0.00,,,0.00,WUHU216WMR100,2013-09-29 01:41:00,
2013-09-28 21:46:00,59.2,48.0,29.12,East,90,0.0,0.0,66,0.00,,,0.00,WUHU216WMR100,2013-09-29 01:46:00,
2013-09-28 21:51:00,59.2,48.4,29.12,East,90,0.0,0.0,67,0.00,,,0.00,WUHU216WMR100,2013-09-29 01:51:00,
2013-09-28 21:57:00,59.0,48.2,29.12,East,90,0.0,0.0,67,0.00,,,0.00,WUHU216WMR100,2013-09-29 01:57:00,
2013-09-28 22:02:00,58.6,48.2,29.12,East,90,0.0,0.0,68,0.00,,,0.00,WUHU216WMR100,2013-09-29 02:02:00,
2013-09-28 22:08:00,58.6,48.2,29.12,East,90,0.0,0.0,68,0.00,,,0.00,WUHU216WMR100,2013-09-29 02:08:00,
2013-09-28 22:13:00,58.6,48.2,29.12,East,90,0.0,0.0,68,0.00,,,0.00,WUHU216WMR100,2013-09-29 02:13:00,
2013-09-28 22:18:00,58.6,48.2,29.12,East,90,0.0,0.0,68,0.00,,,0.00,WUHU216WMR100,2013-09-29 02:18:00,
2013-09-28 22:23:00,58.6,48.2,29.12,East,90,0.0,0.0,68,0.00,,,0.00,WUHU216WMR100,2013-09-29 02:23:00,
2013-09-28 22:28:00,58.6,48.2,29.12,East,90,0.0,0.0,68,0.00,,,0.00,WUHU216WMR100,2013-09-29 02:28:00,
2013-09-28 22:33:00,57.6,48.8,29.12,East,90,0.0,0.0,72,0.00,,,0.00,WUHU216WMR100,2013-09-29 02:33:00,
2013-09-28 22:38:00,57.4,48.6,29.12,East,90,0.0,0.0,72,0.00,,,0.00,WUHU216WMR100,2013-09-29 02:38:00,
2013-09-28 22:43:00,57.4,48.6,29.12,East,90,0.0,0.0,72,0.00,,,0.00,WUHU216WMR100,2013-09-29 02:43:00,
2013-09-28 22:48:00,57.2,48.4,29.12,East,90,0.0,0.0,72,0.00,,,0.00,WUHU216WMR100,2013-09-29 02:48:00,
2013-09-28 22:53:00,57.0,48.5,29.12,East,90,0.0,0.0,73,0.00,,,0.00,WUHU216WMR100,2013-09-29 02:53:00,
2013-09-28 22:58:00,57.0,48.9,29.12,East,90,0.0,0.0,74,0.00,,,0.00,WUHU216WMR100,2013-09-29 02:58:00,
2013-09-28 23:03:00,56.8,48.7,29.12,East,90,0.0,0.0,74,0.00,,,0.00,WUHU216WMR100,2013-09-29 03:03:00,
2013-09-28 23:08:00,56.7,49.0,29.12,East,90,0.0,0.0,75,0.00,,,0.00,WUHU216WMR100,2013-09-29 03:08:00,
2013-09-28 23:13:00,56.7,49.0,29.12,East,90,0.0,0.0,75,0.00,,,0.00,WUHU216WMR100,2013-09-29 03:13:00,
2013-09-28 23:18:00,56.7,49.0,29.12,East,90,0.0,0.0,75,0.00,,,0.00,WUHU216WMR100,2013-09-29 03:18:00,
2013-09-28 23:23:00,56.5,49.1,29.12,East,90,0.0,0.0,76,0.00,,,0.00,WUHU216WMR100,2013-09-29 03:23:00,
2013-09-28 23:28:00,56.5,49.1,29.12,East,90,0.0,0.0,76,0.00,,,0.00,WUHU216WMR100,2013-09-29 03:28:00,
2013-09-28 23:33:00,56.3,48.9,29.12,East,90,0.0,0.0,76,0.00,,,0.00,WUHU216WMR100,2013-09-29 03:33:00,
2013-09-28 23:38:00,55.9,48.5,29.12,East,90,0.0,0.0,76,0.00,,,0.00,WUHU216WMR100,2013-09-29 03:38:00,
2013-09-28 23:43:00,55.9,48.5,29.12,East,90,0.0,0.0,76,0.00,,,0.00,WUHU216WMR100,2013-09-29 03:43:00,
2013-09-28 23:48:00,56.1,49.1,29.12,East,90,0.0,0.0,77,0.00,,,0.00,WUHU216WMR100,2013-09-29 03:48:00,
2013-09-28 23:53:00,56.1,49.1,29.12,East,90,0.0,0.0,77,0.00,,,0.00,WUHU216WMR100,2013-09-29 03:53:00,
2013-09-28 23:58:00,56.3,49.6,29.12,East,90,0.0,0.0,78,0.00,,,0.00,WUHU216WMR100,2013-09-29 03:58:00,